View from above orbital plane
|
View from above satellite
|
Ground track
|
The orbit data is extracted from the following two-line orbital elements,
1 45U 60007A 21025.49216365 -.00000025 00000-0 20569-4 0 9992
2 45 66.6945 155.7386 0252412 155.5434 205.7893 14.33703613154538
Epoch (UTC): | 25 January 2021 11:48:42 |
Eccentricity: | 0.0252412 |
inclination: | 66.6945° |
perigee height: | 599 km |
apogee height: | 960 km |
right ascension of ascending node: | 155.7386° |
argument of perigee: | 155.5434° |
revolutions per day: | 14.33703613 |
mean anomaly at epoch: | 205.7893° |
orbit number at epoch: | 15453 |
The dashed part of the orbit path shows where the satellite is in the earth's shadow,
|
|